Weather Roundup
Issued by NWS

Home | Current Version | Previous Version | Text Only | Print | Product List | Glossary On
Versions: 1 2 3 4 5 6 7 8 9 10 11 12 13 14 15 16 17 18 19 20 21 22 23 24 25 26 27 28 29 30 31 32 33 34 35 36 37 38 39 40 41 42 43 44 45 46 47 48 49 50
000
NZUS93 KARX 241410
HRRWXR

CURRENT HOURLY OBSERVATIONS ACROSS
MUCH OF THE UPPER MISSISSIPPI VALLEY
NATIONAL WEATHER SERVICE LA CROSSE WI
900 AM CDT THU JUL 24 2014


...SOUTHEAST MINNESOTA...


CITY           SKY/WX    TMP DP  RH WIND       PRES   REMARKS
ROCHESTER      SUNNY     68  60  75 S7        30.18S
ROCHESTER/MAYO FAIR      66  56  71 SE3       30.17S
WINONA         SUNNY     68  63  83 E5        30.16S
AUSTIN         MOSUNNY   70  57  64 SW3       30.17R
ALBERT LEA     SUNNY     72  57  60 SE5       30.16S
DODGE CENTER   MOSUNNY   66  61  82 S5        30.17S
PRESTON        SUNNY     64  62  94 CALM      30.18R
OWATONNA       SUNNY     70  55  60 S3        30.16S
FARIBAULT      MOSUNNY   73  54  49 SE3       30.15F
$$

...ELSEWHERE IN MINNESOTA...


CITY           SKY/WX    TMP DP  RH WIND       PRES   REMARKS
MINNEAPOLIS    MOSUNNY   70  58  65 S5        30.15R
INTNL FALLS    MOSUNNY   64  54  69 S5        30.14S
DULUTH         MOSUNNY   67  53  61 VRB5      30.15F
RED WING       SUNNY     72  61  68 SE5       30.15R
REDWOOD FALLS  SUNNY     68  57  68 SE5       30.13F
MANKATO        SUNNY     66  55  68 SE8       30.14F
WORTHINGTON    CLOUDY    66  57  72 SW6       30.19R
FAIRMONT       SUNNY     70  57  64 SE3       30.15R
$$

...SOUTHWEST WISCONSIN...


CITY           SKY/WX    TMP DP  RH WIND       PRES   REMARKS
LA CROSSE      SUNNY     69  57  65 SE5       30.16S
PRAIRIE DU CHI SUNNY     65  54  67 SE5       30.17F
BOSCOBEL       SUNNY     68  52  56 VRB3      30.18F
LONE ROCK      SUNNY     69  55  60 E6        30.19F
PLATTEVILLE    SUNNY     64  53  68 SE5       30.19F
FORT MC COY    SUNNY     64  54  68 SW3       30.18S
VIROQUA        FAIR      65  52  63 S6        30.18F
WIS DELLS      MOSUNNY   62  50  64 CALM      30.19F
$$

...ELSEWHERE IN WISCONSIN...


CITY           SKY/WX    TMP DP  RH WIND       PRES   REMARKS
MILWAUKEE      SUNNY     64  52  64 NE8       30.20S
MADISON        MOSUNNY   67  51  56 SE6       30.19S
GREEN BAY      SUNNY     66  51  58 CALM      30.19F
EAU CLAIRE     SUNNY     67  56  67 SE5       30.15F
BLACK RVR FLS  FAIR      61  57  84 CALM      30.17F
MEDFORD        SUNNY     61  56  83 S5        30.18F
WAUSAU         SUNNY     65  50  58 VRB6      30.17F
WIS RAPIDS     MOSUNNY   66  49  54 S5        30.19F
MARSHFIELD     SUNNY     65  53  65 S7        30.18F
RICE LAKE      SUNNY     63  54  72 SE5       30.18F
$$

...NORTHEAST IOWA...


CITY           SKY/WX    TMP DP  RH WIND       PRES   REMARKS
WATERLOO       SUNNY     70  59  68 S7        30.16R
DUBUQUE        SUNNY     65  52  62 SE8       30.19S
DECORAH        SUNNY     64  61  88 CALM      30.17R
MASON CITY     SUNNY     69  59  70 E3        30.18S
CHARLES CITY   SUNNY     66  59  77 SE5       30.18R
OELWEIN        SUNNY     64  61  88 SE7       30.18R
$$

...ELSEWHERE IN IOWA...


CITY           SKY/WX    TMP DP  RH WIND       PRES   REMARKS
DES MOINES     PTSUNNY   73  60  63 SE6       30.15S
IOWA CITY      SUNNY     67  56  67 SE6       30.19S
FORT DODGE     SUNNY     70  63  78 CALM      30.16S
MARSHALLTOWN   SUNNY     70  62  76 SE5       30.17R
CEDAR RAPIDS   SUNNY     66  54  65 S8        30.17R
$$

...NORTHERN ILLINOIS...


CITY           SKY/WX    TMP DP  RH WIND       PRES   REMARKS
CHICAGO-OHARE  MOSUNNY   66  53  63 NE12      30.18S
DUPAGE         SUNNY     66  54  65 NE8       30.18F
CHICAGO-MIDWAY MOSUNNY   69  56  62 N12       30.17S
MOLINE         SUNNY     66  53  63 E7        30.17F
ROCKFORD       MOSUNNY   67  50  54 NE6       30.20F
STERLING       SUNNY     66  55  68 E8        30.18F
PEORIA         SUNNY     69  54  58 NE9       30.17F
$$

NOTE: "FAIR" INDICATES FEW OR NO CLOUDS BELOW 12,000 FEET WITH NO
SIGNIFICANT WEATHER AND/OR OBSTRUCTIONS TO VISIBILITY. WIND
SPEEDS ARE IN MILES-PER-HOUR.



USA.gov is the U.S. government's official web portal to all federal, state and local government web resources and services.